Showing default

VIASAT 2, 42740

Orbit data source: Space-Track

VIASAT 2, 42740 is a payload satellite owned by ViaSat (US) in GEO that was launched on Thu, 01 Jun 2017 UTC via an ARIANE 5ECA launch vehicle from the French Guiana (FRGUI). Payload-class satellites include a variety of spacecraft equipped with specific instruments for various scientific and technological missions. These include communications satellites like Starlink; space stations such as the ISS; scientific satellites like the Hubble; Earth observation satellites from companies like Planet Labs, Umbra, and HawkEye 360; GPS; miniature CubeSats for education and research; and military/defense satellites.

Loading next visibility...
Identifier
42740, 2017-029A
Orbit
GEO
Country
Flag of USUS
Related business
Manufacturer
Boeing/ES
Mission
Operational Commercial Communications
Bus & Motor
BSS-702HP, R-4D
Mass
6,418 kg wet, 3,500 kg dry
Launch date (UTC)
2017-06-01 (8 years ago)
Launch vehicle
ARIANE 5ECA
Launch site
French Guiana (FRGUI)
Object type
Payload
Rocket body
Debris
Shape & HBR
Box + 2 Pan, 17.0 m
Radar Cross Section
31.184 m², Large (>1 m²)

Expand to show TLE details & history
Last TLE update: 1 day ago

TLE from 1 day ago
0 VIASAT 2
1 42740U 17029A   25302.52862469 -.00000255  00000-0  00000-0 0  9993
2 42740   0.0213 269.0879 0000385 198.0353  51.4296  1.00267441 30893
Epoch: 2025-10-29T12:41Z
TLE epoch observation values (Epoch: 2025-10-29T12:41:13.173Z)
Latitude
-0.03661°
Longitude
-69.88459°
Altitude
35,786.301 km
Speed
3.075 km/s
True Right ascension
10h 34m 04s
True Declination
0° 02' 12"
Sunlit
Object was in daylight at epoch
Visualization orbit readout
Latitude
Unknown
Longitude
Unknown
Altitude
Unknown
Speed
Unknown
Apparent Right ascension
Unknown
Apparent Declination
Unknown
Sunlit
N/A
Visualization observer readout
Local Sidereal Time
10:54:36
Azimuth
Unknown
Elevation
Unknown
Doppler factor
Unknown
Orbital elements
Apogee altitude
35,790.507 km
Perigee altitude
35,787.26 km
Semi-major axis
42,167.02 km
Eccentricity
0.00004
Inclination
0.0213°
RAAN
269.0879°
Arg. of periapsis
198.0353°
True anomaly
51.43305°
Mean anomaly
51.4296°
Eccentric anomaly
51.43132°
Mean motion
0.25066 °/min
Orbital period
1,436.21 mins
BSTAR
0
Loading maneuver chart data...
Computing Atmospheric mass density...
Loading historical data...
Loading historical data...
Loading historical data...
Loading historical data...
Loading historical data...
Loading historical data...
Loading historical data...
Other satellites on launch #29 in the year 2017 (2017-06-01 UTC)

Documentation

Showing up to 5 results
|